LiveATC.Net - Listen to live air traffic control over the Internet!


ICAO: KARR  IATA: ARR   Airport: Aurora Municipal Airport
City: Chicago/Aurora   State/Province: Illinois
Country: United States   Continent: North America
KARR METAR Weather: KARR 261152Z 26008KT 10SM CLR 14/10 A3002 RMK AO2 SLP162 T01440100 10172 20144 53006
KARR Flight Activity (FlightAware)
KARR Airport Info   (AirNav) (iFlightPlanner)
KARR VFR Sectional Chart   (iFlightPlanner) 
KARR IFR Low Chart   (iFlightPlanner) 
KARR Tower
Feed Status: UP   Listeners: 0
Listen right in your browser - requires Flash (in browser, requires Flash)
Click here to listen with your own player (launches your MP3 player)
KARR Tower Audio Archives
FacilityFrequency
Aurora Tower120.600


NOTICE

Unauthorized use prohibited. See LiveATC.net Terms of Service


Find LiveATC Audio Streams


Airport/ARTCC Code

Frequency
(e.g., 124.400, 128.75)
Site-wide search

Browse LiveATC Feeds
LiveATC Coverage Map
Top 50 LiveATC Feeds
Bad Weather Areas

LiveATC FAQ
Offer a LiveATC Feed
Contact LiveATC.net
Press Inquiries

LiveATC on iPhone
LiveATC on Android

Windows Phone
Windows 8/10

LiveATC Mobile
(Mobile browser)

ATC Audio Archives
Interesting Recordings

LiveATC Forums


Home Page
About LiveATC.net
Make a Donation
LiveATC Store

Terms of Use
Privacy Policy

Canadian Air Freqs

AIRMETs/SIGMETs

FAA Airport Status
Nat'l Airspace Status
Arrival Demand Charts


Server Software By:
Icecast.org
Liquidsoap